Temperature
20 20 19 19 19 19 19 19 19 19 19 19 18 18 18 17 17 17 17 17 17 17 16 16 16 16 15 15 15 15 14 14 14 14 14 14 13 13 13 13 13 13 13
21 20 19 19 18 18 18 18 18 18 18 18 18 18 17 17 17 17 17 17 16 16 16 16 16 15 15 15 15 15 14 14 14 14 13 13 13 13 13 13 13 13 13
20 20 19 19 18 18 18 18 18 18 18 18 18 17 17 17 17 17 16 16 16 16 16 16 15 15 15 15 14 14 14 14 14 13 13 13 13 13 13 13 13 13 13
20 19 19 18 18 17 17 17 17 17 17 17 17 17 17 17 16 16 16 16 16 16 15 15 15 15 15 14 14 13 13 13 13 13 13 13 12 12 12 12 12 12 12
19 19 18 18 18 17 17 17 17 17 17 17 17 17 17 16 16 16 16 16 15 15 15 15 15 14 14 14 14 13 13 13 13 13 13 13 12 12 12 12 12 12 12
19 18 18 18 17 17 17 17 16 16 16 16 16 16 16 16 16 15 15 15 15 15 15 15 14 14 14 14 13 13 13 13 13 13 13 12 12 12 12 12 12 12 11
18 18 18 17 17 17 17 16 16 16 16 16 16 16 16 16 16 15 15 15 14 15 14 14 14 14 14 13 13 13 13 13 13 12 12 12 12 12 11 11 11 11 11
18 17 17 17 17 17 16 16 16 16 16 16 16 16 16 15 15 15 15 14 14 14 14 14 14 13 13 13 13 13 13 12 12 12 12 12 12 11 11 11 11 11 11
17 17 17 16 16 16 16 16 16 16 16 16 16 15 15 15 15 15 15 14 14 14 14 14 14 13 13 13 13 12 12 12 12 12 12 12 11 11 11 11 11 11 11
16 16 16 16 16 16 16 16 15 15 15 15 15 15 15 15 15 15 15 14 14 14 14 13 13 13 13 13 12 12 12 12 12 12 11 11 11 11 11 11 11 11 11
15 15 15 15 15 15 15 15 15 15 15 15 15 15 15 15 15 14 14 14 14 14 13 13 13 13 13 12 12 12 12 12 11 11 11 11 11 11 11 11 11 11 11
14 15 15 15 15 15 15 15 15 15 15 15 15 15 14 14 14 14 14 14 14 13 13 13 12 12 12 12 12 11 11 11 11 11 11 11 11 11 11 11 11 10 10
14 14 14 14 14 14 14 15 15 14 14 14 14 14 14 14 14 14 14 13 13 13 12 12 12 12 12 12 12 11 11 11 11 11 11 11 11 10 10 10 10 10 10
13 13 13 14 14 14 14 14 14 14 14 14 14 14 14 14 14 14 14 13 13 13 12 12 12 12 12 12 11 11 11 11 11 11 11 11 10 10 10 10 10 10 10
13 13 13 13 13 14 14 13 13 14 14 14 13 13 14 14 13 13 13 13 13 13 12 12 12 12 11 11 11 11 11 11 11 11 11 10 10 10 10 10 10 10 10
13 13 13 13 13 13 13 13 13 13 13 13 13 13 13 13 13 13 13 13 13 13 12 12 12 11 11 11 11 11 11 11 11 10 10 10 10 10 10 10 10 10 9
12 12 12 12 13 13 13 13 13 13 13 13 13 13 13 13 13 13 13 13 13 12 12 12 11 11 11 11 10 10 10 10 10 10 10 10 10 10 10 10 10 10 9
12 12 12 12 12 12 12 12 12 12 12 12 12 12 13 13 12 12 12 13 12 12 12 11 11 11 10 10 10 10 10 10 10 10 10 10 10 10 10 10 10 10 10
11 11 12 12 12 12 12 12 12 12 12 12 12 12 12 12 12 12 12 12 12 12 11 11 11 11 10 10 10 10 10 10 10 10 10 10 10 10 10 10 10 10 10
11 11 11 11 11 11 11 11 12 12 12 12 12 12 12 12 12 12 12 12 12 11 11 11 11 10 10 10 10 10 10 10 10 10 10 10 10 10 10 10 10 9 9
11 11 11 11 11 11 11 11 11 11 11 11 11 12 12 12 12 11 11 11 11 11 11 11 10 10 10 10 10 9 9 9 9 10 10 10 10 10 10 10 10 9 9
10 10 10 10 10 10 10 10 10 11 11 11 11 11 11 11 11 11 11 11 11 11 11 10 10 10 10 10 9 9 9 9 9 9 9 10 10 10 10 9 9 9 9
9 10 10 10 10 10 10 10 10 10 10 10 11 10 11 11 11 11 11 11 11 11 11 11 10 10 10 9 10 9 9 9 9 9 9 9 10 10 9 9 9 9 9
9 9 9 9 9 9 9 9 9 9 9 10 10 10 10 10 11 11 11 11 11 10 11 11 10 10 10 10 9 10 10 10 9 9 9 9 9 9 9 9 9 9 9
8 8 9 9 9 9 9 9 9 9 9 9 10 10 10 10 10 10 10 10 10 10 10 10 10 10 10 10 10 10 10 10 10 10 9 9 9 10 10 9 9 9 9
8 8 8 8 8 8 8 9 9 9 9 9 9 9 9 9 10 10 10 10 10 10 10 10 10 10 10 10 10 10 10 10 10 10 10 10 10 10 10 10 9 9 9
Wind_Speed
4 8 17 18 19 19 19 19 19 19 19 19 19 20 20 20 20 20 20 20 20 19 19 19 18 18 18 18 18 17 17 16 16 16 16 16 16 16 16 17 16 15 18
7 12 17 18 18 19 19 19 19 19 19 19 19 20 20 20 20 20 20 20 20 19 19 18 18 18 17 17 17 17 17 17 16 16 15 15 16 17 17 17 16 15 18
8 11 16 17 17 18 18 19 19 19 19 19 19 19 20 20 20 20 20 19 19 19 18 18 18 17 17 17 17 17 17 16 16 15 14 12 14 16 17 16 17 17 17
8 10 13 16 17 17 17 18 19 19 19 19 20 20 20 20 20 20 20 19 19 19 19 18 18 17 17 17 16 16 16 15 15 14 11 11 12 15 16 16 17 17 17
6 8 12 16 17 18 17 18 18 19 20 20 20 20 20 20 20 20 20 19 19 19 19 18 18 17 17 17 16 15 15 14 15 13 11 11 11 15 16 17 17 17 17
5 6 11 15 17 17 17 18 18 19 20 20 21 21 21 21 21 20 20 20 20 20 19 19 18 17 17 16 15 15 15 15 15 13 11 10 11 15 16 16 16 16 16
4 5 9 14 16 17 17 17 18 18 20 20 21 22 22 22 21 21 21 21 21 20 19 19 18 17 16 16 15 15 15 16 14 12 10 10 12 14 15 15 15 15 15
3 4 6 12 14 15 16 17 17 18 20 21 21 22 22 22 22 22 22 22 21 20 20 19 18 17 16 16 16 15 16 15 13 11 10 10 12 14 14 15 14 14 14
1 2 4 7 11 13 14 16 17 17 19 21 21 22 22 23 23 23 23 22 22 21 20 19 19 17 16 16 15 14 15 14 12 10 10 10 13 14 14 14 13 13 13
1 2 4 4 7 8 10 14 15 17 18 19 20 20 20 22 23 23 23 23 22 21 21 20 19 18 16 16 15 14 14 13 12 10 9 11 13 13 13 13 13 12 12
4 3 4 5 5 6 8 11 12 14 16 17 18 19 19 17 19 20 21 23 23 22 21 20 19 17 16 15 14 13 13 11 12 10 9 12 13 13 13 12 12 11 11
7 6 5 5 6 6 7 7 9 10 11 12 12 15 16 15 15 18 21 23 23 22 22 20 19 17 13 11 11 11 10 11 11 9 10 13 13 12 12 12 11 11 10
8 7 7 6 6 7 6 6 5 6 7 9 11 13 13 13 13 13 14 17 19 19 16 17 15 12 10 9 8 8 10 10 10 9 11 13 12 11 11 11 11 10 9
8 8 7 7 6 7 6 6 6 6 6 7 9 13 11 8 9 9 9 12 12 12 11 11 9 10 9 9 9 8 9 9 10 10 11 12 12 11 11 11 10 9 8
9 9 8 8 8 7 6 6 7 7 8 8 9 12 12 9 10 10 9 11 12 12 12 10 9 9 7 7 8 8 8 10 11 11 10 12 12 11 11 11 10 9 8
9 9 8 8 8 8 7 7 7 8 8 9 9 12 14 11 11 11 11 11 11 13 13 12 10 9 7 6 6 8 9 10 11 11 11 11 12 11 11 10 9 8 7
9 9 8 8 8 8 8 8 7 8 9 9 10 13 15 14 13 12 12 11 12 15 14 11 10 7 6 6 6 7 8 9 10 10 11 11 11 10 10 10 9 8 7
8 8 8 7 7 8 8 7 7 8 9 9 10 12 15 15 15 13 11 12 13 14 12 10 10 7 7 7 6 6 6 7 8 9 10 10 10 10 10 10 9 8 7
7 8 8 6 8 8 7 7 7 7 9 9 9 10 13 15 16 13 12 12 14 13 11 12 10 8 8 8 7 5 5 5 6 7 7 9 11 11 10 10 9 8 8
6 7 7 6 7 7 6 6 6 6 7 8 9 10 13 13 15 13 11 13 14 13 12 12 11 9 8 9 7 5 4 4 4 6 7 8 9 11 11 10 9 8 8
4 5 7 6 7 6 5 5 6 7 7 8 9 12 14 14 14 13 11 13 13 13 14 14 10 11 9 8 6 4 1 1 4 5 5 5 7 9 11 11 10 9 8
5 5 7 7 7 8 7 6 6 6 7 8 8 11 14 15 15 14 13 13 13 12 15 15 12 9 8 9 7 7 3 1 3 4 5 6 6 6 7 10 11 10 9
5 6 7 6 6 7 7 5 4 4 4 6 8 9 12 14 15 14 14 14 14 13 15 16 15 12 11 9 9 7 6 6 3 3 4 5 6 5 5 7 10 11 11
6 6 6 6 6 6 6 6 6 6 7 7 7 8 11 14 15 15 15 15 15 13 14 16 15 11 13 12 8 4 3 5 5 3 2 3 5 6 6 6 7 10 11
5 5 6 5 5 6 7 8 7 7 7 6 7 8 9 11 13 14 15 15 15 13 15 15 13 14 12 11 9 6 4 3 3 4 4 4 3 4 6 6 6 7 10
5 5 5 5 6 6 7 8 8 8 8 8 9 9 9 8 10 12 14 15 15 13 15 16 15 15 12 11 9 7 6 6 5 4 4 5 4 3 4 4 6 7 9
Wind_Direction
195 185 182 174 170 166 162 158 154 152 149 146 144 141 138 136 135 135 134 134 133 131 129 125 122 119 117 115 113 110 108 108 105 104 103 103 103 100 97 92 89 84 85
172 174 178 175 173 170 166 163 159 156 154 152 150 147 144 142 140 140 140 138 136 134 132 128 126 124 121 118 116 112 109 108 105 102 102 102 105 103 101 98 96 92 89
155 169 175 175 175 174 171 168 163 161 160 158 155 153 150 148 146 144 143 141 140 138 135 132 130 127 125 123 120 116 114 111 107 103 99 98 105 106 102 99 98 95 92
154 167 175 178 177 175 175 173 169 167 165 163 161 158 155 153 151 150 148 146 143 140 137 134 132 131 128 126 123 120 118 114 110 106 96 98 106 109 106 102 98 95 92
152 166 177 181 180 178 178 177 176 173 170 169 166 163 161 158 156 155 154 151 147 142 138 136 135 135 133 131 127 125 121 117 112 106 100 101 106 109 106 103 100 97 94
157 170 178 182 185 182 181 181 181 178 176 175 173 169 167 163 160 158 156 152 147 143 141 140 139 138 137 134 130 126 121 118 112 106 105 105 107 111 108 105 102 99 97
159 175 182 185 187 187 186 185 185 184 182 181 179 176 172 167 163 160 155 152 149 147 145 145 144 143 139 137 133 127 123 122 116 112 110 109 113 115 113 109 105 101 99
165 185 187 188 189 191 192 190 188 188 187 186 183 180 175 170 166 162 158 155 152 152 151 151 150 147 144 142 137 128 124 123 120 119 117 118 121 118 115 113 109 105 102
173 183 195 197 192 195 199 197 194 192 190 188 186 183 178 174 170 167 163 160 157 156 155 154 153 150 148 145 140 132 128 122 121 122 123 124 126 122 119 116 113 109 105
239 210 213 213 198 197 200 200 199 197 193 190 189 184 179 176 173 170 166 163 162 160 159 158 155 154 153 149 143 134 128 124 124 126 127 132 131 127 124 121 117 114 110
294 239 222 219 213 204 201 202 199 198 195 192 189 182 177 175 172 170 167 165 165 164 163 162 159 158 155 152 147 136 128 129 130 131 137 140 137 133 130 127 123 120 117
282 262 228 219 217 213 210 201 199 199 194 190 186 182 178 172 170 170 169 167 167 166 166 164 162 159 153 149 147 138 132 138 138 141 149 148 144 141 138 134 129 126 123
253 262 249 224 216 214 207 201 195 192 187 187 183 180 176 169 166 168 167 167 165 164 163 162 158 154 152 150 147 144 143 145 148 152 158 155 152 150 147 141 137 133 130
257 255 256 230 219 217 212 202 196 189 187 188 184 181 174 174 173 170 171 166 162 162 159 159 157 157 160 161 157 153 151 153 156 158 165 162 159 157 154 150 146 143 141
256 256 255 239 219 215 214 213 204 196 194 192 185 185 181 180 182 176 174 172 167 164 165 163 163 165 167 166 164 159 158 160 161 162 165 166 164 163 162 160 157 154 153
252 251 250 250 225 214 211 213 211 199 194 192 190 189 187 182 183 181 175 178 173 171 170 169 169 171 172 168 168 164 162 164 164 164 167 168 168 170 172 168 166 164 163
254 250 249 253 234 217 212 210 211 204 197 198 196 192 189 187 183 185 181 181 179 175 172 169 168 166 167 168 170 166 162 166 168 167 169 170 169 171 173 176 175 175 175
256 253 246 257 247 224 214 212 209 207 202 201 196 194 190 189 185 183 187 185 180 175 172 170 169 167 170 168 166 169 166 165 169 171 171 172 173 174 177 180 182 185 185
251 251 242 244 244 225 219 216 214 208 206 201 197 194 191 190 188 185 188 186 179 176 173 174 171 166 168 168 166 164 168 172 172 170 172 177 180 180 182 186 190 197 200
258 254 242 237 243 227 218 219 216 215 211 205 200 194 190 189 189 186 189 186 181 179 176 175 170 166 167 166 160 157 167 179 177 177 182 180 184 185 187 189 190 198 204
278 271 250 237 245 226 214 214 215 215 215 209 205 198 193 189 186 189 191 188 187 186 179 173 168 166 166 157 139 134 79 195 194 192 186 182 187 189 188 190 190 192 201
260 272 259 239 238 225 217 214 212 214 217 209 206 201 196 192 189 191 189 190 190 188 180 176 167 165 166 165 153 146 152 227 247 212 194 193 195 187 191 195 193 194 198
273 272 269 255 252 236 222 220 221 214 211 206 207 203 200 196 194 192 192 189 189 191 187 181 176 169 170 174 166 158 161 196 204 233 214 203 194 193 197 195 197 199 200
269 273 264 256 255 246 223 214 214 215 221 219 208 208 203 197 194 194 195 192 189 193 191 185 179 173 168 174 177 176 160 150 159 187 234 216 203 201 200 198 196 200 201
266 272 269 264 259 253 231 217 220 225 227 222 207 204 207 202 197 195 197 196 192 195 193 184 179 178 177 176 175 167 155 147 140 154 193 206 217 218 206 199 196 198 201
290 286 279 275 268 265 244 227 221 231 228 219 209 205 205 204 201 197 198 198 193 195 194 186 182 180 183 180 177 173 168 167 174 163 178 190 203 223 210 200 198 198 201
Height
1486 1486 1487 1488 1490 1491 1493 1494 1496 1498 1499 1501 1502 1504 1505 1507 1508 1510 1511 1512 1513 1514 1515 1516 1516 1517 1518 1518 1518 1519 1519 1519 1519 1520 1520 1520 1521 1521 1521 1521 1521 1521 1521
1485 1486 1487 1488 1490 1491 1493 1494 1496 1497 1499 1500 1502 1503 1505 1506 1508 1509 1511 1512 1513 1514 1515 1515 1516 1517 1518 1518 1518 1519 1519 1520 1520 1520 1521 1521 1522 1522 1522 1522 1523 1522 1522
1485 1485 1486 1488 1489 1491 1492 1494 1495 1497 1498 1500 1502 1503 1504 1506 1507 1509 1510 1511 1512 1513 1514 1515 1516 1517 1517 1518 1518 1519 1519 1520 1520 1521 1521 1522 1522 1523 1523 1523 1524 1524 1523
1485 1485 1486 1487 1489 1490 1492 1493 1495 1496 1498 1499 1501 1502 1504 1505 1507 1508 1509 1511 1512 1513 1514 1515 1516 1516 1517 1518 1519 1519 1520 1520 1521 1521 1522 1522 1523 1524 1524 1524 1524 1524 1524
1484 1485 1485 1487 1488 1489 1491 1492 1494 1495 1496 1498 1500 1501 1503 1504 1506 1507 1508 1510 1511 1512 1513 1514 1515 1516 1517 1518 1519 1519 1520 1521 1521 1522 1523 1523 1524 1525 1525 1525 1525 1525 1525
1483 1483 1484 1485 1487 1488 1490 1491 1492 1494 1495 1497 1498 1500 1501 1503 1504 1506 1507 1509 1510 1511 1512 1514 1515 1516 1517 1518 1519 1519 1520 1521 1522 1522 1523 1524 1525 1525 1526 1526 1526 1526 1526
1481 1482 1483 1484 1485 1487 1488 1489 1490 1492 1493 1495 1497 1498 1500 1502 1503 1505 1506 1507 1509 1510 1511 1513 1514 1515 1516 1518 1518 1519 1520 1521 1522 1523 1524 1525 1525 1526 1526 1526 1527 1527 1527
1480 1480 1481 1482 1483 1484 1486 1487 1488 1490 1491 1493 1495 1496 1498 1500 1501 1503 1504 1506 1507 1509 1510 1512 1513 1514 1516 1517 1518 1519 1520 1521 1522 1523 1524 1525 1526 1526 1527 1527 1528 1528 1528
1478 1478 1479 1480 1481 1482 1483 1484 1486 1487 1489 1490 1492 1493 1495 1497 1499 1501 1502 1504 1506 1507 1509 1510 1512 1514 1515 1517 1518 1519 1520 1521 1522 1524 1525 1526 1526 1527 1527 1528 1528 1528 1528
1475 1476 1476 1477 1478 1479 1480 1481 1483 1484 1486 1487 1489 1490 1492 1494 1496 1498 1500 1502 1504 1505 1507 1509 1511 1512 1514 1516 1517 1519 1520 1521 1523 1524 1525 1526 1527 1527 1528 1528 1528 1529 1529
1472 1473 1473 1474 1475 1475 1476 1477 1479 1480 1482 1484 1485 1487 1489 1491 1493 1495 1497 1499 1502 1504 1506 1508 1509 1511 1513 1515 1516 1518 1519 1521 1522 1524 1525 1526 1527 1527 1528 1528 1528 1529 1529
1467 1468 1469 1470 1470 1471 1473 1473 1475 1476 1478 1479 1481 1483 1485 1487 1489 1491 1494 1496 1499 1501 1504 1506 1508 1510 1511 1513 1515 1517 1519 1520 1522 1523 1524 1526 1527 1527 1528 1528 1528 1529 1529
1463 1463 1465 1465 1466 1467 1468 1469 1470 1471 1473 1475 1476 1479 1481 1483 1485 1487 1490 1493 1496 1498 1501 1504 1506 1507 1510 1512 1514 1516 1518 1519 1521 1522 1524 1525 1526 1527 1527 1528 1528 1528 1529
1459 1459 1459 1461 1461 1462 1463 1463 1465 1466 1468 1470 1472 1474 1476 1478 1480 1482 1485 1488 1491 1494 1497 1500 1503 1505 1508 1510 1513 1515 1516 1518 1520 1522 1523 1524 1525 1526 1527 1527 1527 1528 1528
1454 1454 1454 1455 1456 1457 1458 1459 1459 1461 1463 1465 1467 1469 1471 1473 1475 1478 1481 1484 1487 1490 1494 1497 1500 1503 1506 1508 1511 1513 1515 1517 1519 1520 1522 1523 1524 1525 1526 1527 1527 1527 1527
1449 1449 1449 1449 1450 1451 1452 1453 1454 1455 1457 1460 1462 1464 1466 1468 1471 1473 1476 1479 1482 1486 1490 1494 1497 1500 1503 1506 1509 1511 1513 1515 1517 1519 1520 1522 1523 1524 1525 1526 1526 1526 1527
1444 1444 1444 1444 1444 1445 1446 1448 1449 1450 1452 1453 1456 1459 1461 1463 1466 1469 1471 1474 1478 1482 1486 1491 1494 1498 1501 1504 1507 1509 1512 1513 1515 1517 1518 1520 1521 1522 1523 1524 1525 1525 1525
1438 1438 1438 1438 1439 1439 1440 1442 1443 1444 1446 1448 1450 1453 1455 1458 1461 1464 1466 1469 1473 1477 1481 1486 1490 1494 1498 1501 1504 1507 1510 1512 1513 1515 1517 1518 1519 1520 1521 1522 1523 1524 1524
1432 1432 1432 1432 1433 1433 1435 1436 1437 1438 1440 1442 1444 1446 1449 1452 1455 1458 1461 1464 1467 1471 1475 1480 1485 1489 1494 1498 1501 1505 1507 1510 1511 1513 1514 1516 1517 1518 1519 1520 1521 1522 1522
1426 1426 1426 1427 1427 1428 1429 1431 1431 1432 1434 1436 1438 1440 1443 1446 1449 1452 1456 1459 1461 1465 1469 1474 1479 1485 1490 1495 1499 1502 1506 1508 1509 1510 1512 1513 1515 1516 1517 1518 1518 1519 1520
1421 1420 1420 1419 1420 1421 1422 1423 1424 1425 1427 1429 1431 1434 1437 1440 1443 1446 1449 1453 1455 1458 1463 1468 1474 1480 1485 1491 1495 1499 1503 1505 1507 1508 1509 1510 1512 1513 1514 1515 1516 1516 1517
1416 1415 1414 1414 1414 1415 1416 1418 1419 1419 1420 1422 1425 1427 1430 1433 1437 1440 1443 1447 1451 1454 1458 1463 1469 1474 1479 1484 1489 1494 1498 1502 1503 1504 1506 1507 1508 1510 1511 1512 1513 1514 1514
1411 1410 1409 1408 1408 1409 1410 1412 1413 1414 1414 1416 1418 1420 1423 1427 1430 1434 1437 1442 1446 1449 1452 1456 1461 1466 1472 1479 1484 1487 1491 1493 1497 1500 1501 1503 1505 1506 1507 1509 1510 1510 1511
1407 1406 1404 1404 1404 1404 1404 1406 1406 1406 1406 1408 1411 1414 1417 1420 1424 1428 1431 1435 1440 1444 1447 1449 1455 1461 1466 1471 1477 1482 1485 1486 1490 1493 1497 1499 1501 1502 1504 1505 1506 1507 1508
1403 1401 1400 1399 1398 1398 1399 1399 1400 1400 1401 1403 1406 1408 1411 1414 1417 1421 1425 1429 1433 1438 1442 1445 1449 1455 1460 1465 1469 1475 1479 1482 1484 1487 1490 1493 1496 1498 1500 1501 1503 1504 1504
1399 1397 1395 1394 1393 1393 1393 1393 1393 1394 1395 1397 1399 1402 1404 1407 1411 1414 1418 1423 1427 1431 1436 1439 1444 1450 1455 1460 1465 1470 1473 1476 1479 1482 1485 1487 1491 1494 1496 1497 1499 1500 1500